This is the latest recevied weather packets stored in our database for station/object IT9CYW-10. If no packets are shown the sender has not sent any weather packets the latest 10 day(s).
| Time | Temp. | Humidity | Pressure | Rain* | Wind** | Luminosity | Snow |
|---|---|---|---|---|---|---|---|
| 1777768090 | 9.44° C | 79% | 1002.9 hPa | - | - | 0 W/m² | - |
| 1777767190 | 8.89° C | 82% | 1003 hPa | - | - | 0 W/m² | - |
| 1777766290 | 8.89° C | 82% | 1003.2 hPa | - | - | 0 W/m² | - |
| 1777765389 | 8.89° C | 83% | 1003.2 hPa | - | - | 0 W/m² | - |
| 1777763589 | 8.89° C | 84% | 1003.4 hPa | - | - | 0 W/m² | - |
| 1777762689 | 9.44° C | 83% | 1003.5 hPa | - | - | 0 W/m² | - |
| 1777761789 | 9.44° C | 81% | 1003.9 hPa | - | - | 0 W/m² | - |
| 1777760889 | 9.44° C | 83% | 1003.9 hPa | - | - | 0 W/m² | - |
| 1777759989 | 9.44° C | 82% | 1004 hPa | - | - | 0 W/m² | - |
| 1777759089 | 10° C | 79% | 1003.7 hPa | - | - | 0 W/m² | - |
| 1777758188 | 10° C | 81% | 1003.7 hPa | - | - | 0 W/m² | - |
| 1777757288 | 10.56° C | 77% | 1003.9 hPa | - | - | 0 W/m² | - |
| 1777756388 | 10° C | 77% | 1003.7 hPa | - | - | 0 W/m² | - |
| 1777755488 | 9.44° C | 82% | 1003.5 hPa | - | - | 0 W/m² | - |
| 1777754588 | 9.44° C | 82% | 1003.5 hPa | - | - | 0 W/m² | - |
| 1777753688 | 10° C | 81% | 1003.4 hPa | - | - | 0 W/m² | - |
| 1777752788 | 10° C | 81% | 1003.5 hPa | - | - | 0 W/m² | - |
| 1777751887 | 10° C | 80% | 1003.7 hPa | - | - | 0 W/m² | - |
| 1777750987 | 10.56° C | 79% | 1003.7 hPa | - | - | 0 W/m² | - |
| 1777750087 | 11.11° C | 77% | 1003.2 hPa | - | - | 0 W/m² | - |
| 1777749187 | 11.11° C | 75% | 1003.4 hPa | - | - | 0 W/m² | - |
| 1777748287 | 11.67° C | 72% | 1003.2 hPa | - | - | 0 W/m² | - |
| 1777747386 | 12.22° C | 69% | 1002.7 hPa | - | - | 0 W/m² | - |
| 1777746486 | 12.78° C | 67% | 1002.4 hPa | - | - | 0 W/m² | - |
| 1777745586 | 13.33° C | 65% | 1002.4 hPa | - | - | 0 W/m² | - |
* Rain since midnight (hover to see other rain measurements)
** Current wind speed in m/s (hover to see current wind gust speed)